Staverton, United Kingdom

5:04 AM BST on May 29, 2017 (GMT +0100)
Gloucestershire

Weather History for EGBJ - October, 2012

Change the Weather History Date:

Sunday, October 14, 2012

  Actual Average Record
Temperature  
Mean Temperature 42 °F -  
Max Temperature 53 °F 53 °F 64 °F (1996)
Min Temperature 32 °F 46 °F 32 °F (2012)
Degree Days  
Heating Degree Days 22    
Moisture  
Dew Point 39 °F    
Average Humidity 76    
Maximum Humidity 100    
Minimum Humidity 58    
Precipitation  
Precipitation 0.00 in - - ()
Sea Level Pressure  
Sea Level Pressure 29.61 in    
Wind  
Wind Speed 2 mph ()    
Max Wind Speed 6 mph    
Max Gust Speed -    
Visibility 5.2 miles    
Events Fog    
Averages and records for this station are not official NWS values.
T = Trace of Precipitation, MM = Missing Value Source: Averaged Metar Reports

Daily Weather History Graph

Daily Weather History Graph

Search for Another Location

Airport or City:

Trip Planner

Search our weather history database for the weather conditions in past years. The results will help you decide how hot, cold, wet, or windy it might be!

Date:

Astronomy

Oct. 14, 2012 Rise Set
Actual Time 7:32 AM BST 6:16 PM BST
Civil Twilight 6:58 AM BST 6:50 PM BST
Nautical Twilight 6:19 AM BST 7:29 PM BST
Astronomical Twilight 5:39 AM BST 8:08 PM BST
Moon 6:10 AM BST (10/14) 5:27 PM BST (10/14)
Length of Visible Light 11h 52m
Length of Day
10h 44m
Waning Crescent, 2% of the Moon is Illuminated
Oct 14
Waning Crescent
Oct 15
New
Oct 22
First Quarter
Oct 29
Full
Nov 7
Last Quarter

Hourly Weather History & Observations

Time (BST) Temp. Dew Point Humidity Pressure Visibility Wind Dir Wind Speed Gust Speed Precip Events Conditions
8:20 AM 32.0 °F 32.0 °F 100% 29.62 in 0.2 mi Calm Calm - N/A Fog Light Freezing Fog
8:50 AM 33.8 °F 32.0 °F 93% 29.62 in 0.2 mi Calm Calm - N/A Fog Fog
9:20 AM 35.6 °F 33.8 °F 93% 29.62 in 0.3 mi Calm Calm - N/A Fog Fog
9:50 AM 39.2 °F 37.4 °F 93% 29.62 in 5.0 mi Calm Calm - N/A Fog Partly Cloudy
10:20 AM 41.0 °F 39.2 °F 93% 29.62 in 5.0 mi West 2.3 mph - N/A Fog Partly Cloudy
10:50 AM 44.6 °F 41.0 °F 87% 29.62 in 6.2 mi Calm Calm - N/A   Partly Cloudy
11:20 AM 44.6 °F 41.0 °F 87% 29.62 in 6.2 mi West 2.3 mph - N/A   Partly Cloudy
11:50 AM 46.4 °F 42.8 °F 87% 29.62 in 6.2 mi Calm Calm - N/A   Partly Cloudy
12:20 PM 48.2 °F 42.8 °F 82% 29.62 in 6.2 mi NNW 2.3 mph - N/A   Partly Cloudy
12:50 PM 50.0 °F 41.0 °F 71% 29.62 in 6.2 mi North 2.3 mph - N/A   Partly Cloudy
1:20 PM 50.0 °F 41.0 °F 71% 29.62 in 6.2 mi North 3.5 mph - N/A   Partly Cloudy
1:50 PM 51.8 °F 41.0 °F 67% 29.59 in 6.2 mi NNW 3.5 mph - N/A   Partly Cloudy
2:20 PM 51.8 °F 41.0 °F 67% 29.59 in 6.2 mi NNW 4.6 mph - N/A   Partly Cloudy
2:50 PM 53.6 °F 41.0 °F 62% 29.59 in 6.2 mi NNW 5.8 mph - N/A   Partly Cloudy
3:20 PM 53.6 °F 41.0 °F 62% 29.59 in 6.2 mi North 4.6 mph - N/A   Partly Cloudy
3:50 PM 51.8 °F 39.2 °F 62% 29.59 in 6.2 mi North 5.8 mph - N/A   Scattered Clouds
4:20 PM 53.6 °F 39.2 °F 58% 29.62 in 6.2 mi NNW 3.5 mph - N/A   Scattered Clouds
4:50 PM 53.6 °F 41.0 °F 62% 29.62 in 6.2 mi West 3.5 mph - N/A   Scattered Clouds
5:20 PM 53.6 °F 41.0 °F 62% 29.62 in 6.2 mi West 3.5 mph - N/A   Partly Cloudy
5:50 PM 51.8 °F 41.0 °F 67% 29.62 in 6.2 mi West 3.5 mph - N/A   Partly Cloudy
6:20 PM 48.2 °F 39.2 °F 71% 29.62 in 6.2 mi West 3.5 mph - N/A   Partly Cloudy
6:50 PM 46.4 °F 39.2 °F 76% 29.62 in - West 2.3 mph - N/A   Clear